ONEWEB-0375 (49301 NORAD) Tracking and Keplerian Element Data

This shows tracking and keplerian element data for the satellite.

Feedback or suggestion? Click here.




ElementValue
Catalog49301
NameONEWEB-0375
Epoch Orbit356
Epoch Day339.91667824
Epoch Year2021
RAAN275.0298
Inclination87.1991
Eccentricity0.0008445
Argument of Perigee80.4343
Mean Anonmoly276.0461
Mean Motion14.88435466
Decay Rate-0.00051648
L11 49301U 21090Y 21339.91667824 -.00051648 00000+0 -56178-2 0 9994
L22 49301 87.1991 275.0298 0008445 80.4343 276.0461 14.88435466 3569

Live tracking and technical data element details for ONEWEB-0375 (NORAD 49301). ONEWEB-0375 can be tracked NOW for your location showing map with azimuth and elevation plus other details from your city location.

Track the satellite on the map from your city or location and see movement details for azimuth, elevation, latitude, longitude, range, height, and movement on the map or in text.







IsCatalogInMostPopularTable: catalog: 49301, numindb: 4
Update: records affected: 1



GetName: 49301 ONEWEB-0375

Hit Count: updated at: Mon, 06 Dec 2021 15:08:29 GMT